Wind_Speed
30 30 29 30 30 30 30 31 32 32 34 36 36 37 36 36 37 38 41 44 47 48 47 46 44 42 41 41 41 41 41 41 41 39 38 36 36 36 37 37 37 37 36 35
28 28 28 28 28 29 31 33 34 37 39 41 42 42 42 41 41 41 43 45 47 48 49 49 48 45 43 43 42 41 41 42 43 41 39 38 37 37 37 37 36 36 36 36
26 26 26 27 28 30 32 35 38 41 44 46 48 48 47 47 46 45 46 47 48 49 49 50 50 48 46 44 43 42 42 43 43 42 40 38 37 37 36 35 35 35 36 36
26 26 27 28 30 33 35 38 41 44 47 49 50 55 51 50 48 48 49 51 51 51 51 51 52 51 48 46 45 43 42 42 43 42 41 39 38 37 36 36 36 36 35 36
27 27 28 30 33 36 38 41 43 46 50 53 53 58 56 54 53 51 52 53 54 54 53 53 53 52 50 48 47 45 42 42 43 42 41 39 38 37 36 36 36 36 36 37
28 29 30 32 35 37 40 42 45 48 51 55 53 58 58 55 56 55 55 56 56 57 56 54 54 54 52 51 48 45 43 43 43 42 41 39 38 37 37 36 37 37 37 38
29 30 31 33 35 37 40 42 46 49 51 53 53 56 54 51 54 56 57 58 57 58 58 55 55 55 54 51 49 46 44 43 42 42 40 39 38 37 37 37 37 38 38 39
29 29 30 32 34 36 38 41 43 47 51 52 53 53 47 45 48 52 55 57 57 57 58 57 55 55 54 52 50 47 44 43 43 42 41 40 39 37 37 37 37 38 38 39
27 26 27 29 31 32 35 38 40 44 47 50 50 47 42 40 44 47 48 50 52 54 56 57 55 55 54 52 49 47 45 44 43 42 41 40 39 38 37 37 38 38 39 39
23 23 24 25 28 30 33 34 36 39 43 46 44 40 37 36 38 40 42 43 45 49 53 56 55 54 53 52 49 47 46 45 44 43 42 41 40 38 38 38 38 39 39 40
21 21 21 22 25 28 29 31 34 37 41 43 43 37 33 31 32 33 35 38 41 44 49 53 54 54 53 51 49 47 46 45 44 43 42 41 39 38 38 38 38 39 40 40
19 19 17 19 23 26 27 28 32 36 38 40 42 33 28 27 26 28 30 32 35 40 46 50 52 52 51 49 47 46 45 45 44 43 42 41 40 39 38 38 38 39 40 40
15 15 15 16 20 23 24 26 30 33 36 37 37 31 25 23 22 24 26 28 30 35 42 47 49 48 47 46 44 44 44 44 44 42 41 40 39 38 38 38 38 39 39 40
12 12 13 14 17 21 21 22 25 29 32 32 29 25 20 20 19 20 21 23 25 32 40 44 45 45 44 43 42 42 43 43 42 41 40 39 38 38 38 38 38 38 38 39
10 9 10 11 14 16 18 20 21 24 25 25 20 18 13 13 13 13 13 17 21 29 37 40 41 41 40 39 40 40 41 41 40 39 38 38 37 37 37 38 38 37 38 39
8 7 7 8 11 12 14 17 17 17 17 17 15 11 9 7 5 5 8 12 18 26 33 35 36 37 36 36 37 37 38 37 37 36 36 36 35 35 36 37 36 36 37 39
5 4 3 4 7 9 12 14 14 14 13 12 10 9 7 5 3 6 10 14 19 24 28 30 32 32 32 33 33 33 34 34 34 34 33 34 34 34 34 34 35 36 37 39
4 2 1 3 6 10 11 12 12 12 12 11 9 8 9 9 9 11 15 18 20 22 24 26 27 28 28 29 29 29 30 30 30 30 31 31 31 31 31 32 33 35 38 41
4 1 2 5 8 9 10 10 11 11 12 12 11 10 10 11 14 15 17 18 20 20 22 23 23 23 23 23 24 24 24 25 26 27 27 28 28 28 29 31 34 36 39 43
4 2 2 4 6 8 8 8 9 10 11 12 12 11 10 10 13 15 16 17 18 18 19 19 19 19 19 20 20 22 23 23 24 24 24 24 26 27 30 32 35 38 41 44
6 3 1 2 4 5 5 5 6 7 8 10 11 11 11 12 14 15 14 15 15 16 17 17 17 17 17 18 18 19 19 19 20 21 22 24 25 28 31 34 37 40 42 44
9 6 3 1 1 3 3 3 4 5 5 6 7 8 8 9 10 11 12 12 12 12 13 13 13 14 14 14 15 15 16 17 18 20 22 24 27 30 33 35 38 40 42 44
11 9 7 5 3 2 3 3 3 3 3 3 3 4 4 4 5 6 6 7 7 8 8 8 9 9 10 11 12 13 14 16 18 21 23 26 28 31 33 36 38 40 43 45
13 12 10 8 6 5 4 3 3 3 2 2 2 1 1 1 1 2 2 3 4 4 5 5 6 7 8 9 11 13 15 17 19 22 24 27 29 31 34 36 39 41 43 45
15 14 12 10 9 8 6 5 4 3 3 2 1 1 1 0 0 1 1 2 2 3 4 5 6 7 8 10 12 14 16 18 20 23 25 27 30 32 35 37 39 42 43 45
17 15 13 12 11 9 8 7 6 5 4 3 2 2 1 1 1 2 2 3 3 4 4 5 6 7 9 10 12 14 17 19 22 24 26 29 31 33 36 38 40 41 43 46
Wind_Direction
223 225 229 232 236 241 245 249 253 256 258 259 260 263 264 263 262 260 258 256 254 253 250 249 246 245 245 246 245 243 243 245 248 251 254 256 258 259 259 258 258 258 258 257
225 229 234 239 244 249 252 255 258 260 262 263 264 264 266 266 265 262 259 256 254 252 249 247 246 244 244 246 247 245 243 244 246 248 252 255 258 259 260 260 259 259 259 258
231 235 241 247 251 256 260 263 265 266 267 268 268 266 265 265 264 263 261 257 254 251 249 246 245 244 243 244 246 245 244 244 245 247 250 254 257 258 259 259 259 260 261 261
238 243 249 254 260 263 266 268 270 271 271 271 271 270 266 266 264 262 260 258 254 250 247 245 243 242 242 242 243 244 243 244 246 248 249 252 255 256 256 257 258 260 262 263
243 249 255 261 265 268 271 272 274 275 275 275 274 273 269 268 265 261 257 256 254 250 246 243 241 240 239 239 240 241 241 243 246 248 249 252 255 257 257 258 259 261 262 264
249 255 260 265 269 273 276 278 278 279 279 278 278 277 274 271 267 262 257 253 250 249 246 241 239 237 236 237 238 239 240 242 245 247 249 252 255 257 257 258 259 261 263 265
252 259 265 269 274 277 280 281 282 282 281 281 280 278 278 273 268 262 257 252 248 245 243 240 237 236 235 235 236 238 238 240 243 245 248 250 253 256 258 259 260 261 263 266
254 260 267 273 277 280 282 283 285 286 286 286 283 282 281 273 266 262 257 253 248 243 240 238 235 233 233 233 234 235 236 238 240 243 246 249 252 256 259 261 261 262 264 267
255 263 270 276 280 283 285 286 288 289 290 288 287 287 282 274 268 264 260 255 248 241 237 234 233 231 230 231 231 232 233 235 238 240 244 247 251 254 258 260 262 264 266 269
259 267 273 279 282 285 287 291 293 293 293 293 293 292 289 277 271 265 259 254 247 238 233 230 229 228 227 228 229 229 230 232 235 237 241 245 249 253 258 261 264 266 269 271
264 270 275 280 284 287 290 293 294 293 293 296 297 296 294 285 274 266 258 253 245 234 228 226 224 224 224 225 226 227 229 231 233 236 240 244 249 254 258 262 265 268 271 274
268 274 278 281 285 289 292 295 295 294 295 296 296 300 297 289 276 264 255 247 240 230 222 219 219 218 219 221 222 224 227 229 232 235 238 243 248 254 259 263 267 271 274 277
269 275 277 281 286 289 294 297 296 296 295 297 298 303 296 284 271 261 252 243 235 223 213 211 211 212 214 215 217 221 224 227 230 234 238 244 249 255 260 265 270 273 277 279
264 273 283 290 293 299 305 306 304 301 302 304 303 300 293 286 273 259 248 238 228 213 205 204 203 205 208 210 213 218 222 225 229 234 239 245 251 257 262 268 272 275 277 280
260 273 286 295 301 305 313 317 316 313 315 315 315 304 294 284 273 260 238 221 211 201 195 194 195 198 201 205 210 215 220 224 229 234 240 247 254 260 265 270 273 275 278 281
257 274 290 303 314 321 332 336 334 331 330 330 332 330 325 301 269 230 198 187 182 181 181 184 187 192 196 201 207 213 219 224 230 236 243 250 257 262 266 270 272 275 279 282
251 270 295 319 339 354 358 355 353 352 351 354 2 9 16 31 98 136 144 146 153 162 168 174 179 185 192 198 206 212 219 225 232 239 247 254 258 262 265 268 272 276 281 286
239 253 46 43 37 29 23 17 14 10 8 11 19 31 47 72 94 114 122 129 137 147 157 165 173 182 190 199 207 214 221 228 236 243 249 253 257 260 264 269 275 281 286 290
212 181 77 56 50 45 37 33 31 29 31 33 38 44 58 79 96 107 117 125 134 142 153 162 172 181 190 200 208 216 224 232 238 243 247 252 256 262 269 275 281 286 290 293
205 184 88 63 55 47 40 45 45 50 54 50 52 58 71 89 104 112 118 125 134 145 155 163 173 183 192 200 210 218 225 231 237 242 248 255 263 270 277 282 286 290 293 295
212 207 163 71 49 38 37 45 45 52 54 53 52 59 72 85 101 110 119 131 139 148 158 167 175 185 194 203 211 218 225 232 240 248 257 265 273 279 283 287 290 292 294 296
216 221 227 245 351 16 18 30 30 32 42 53 58 66 77 87 100 109 118 130 140 149 158 167 178 188 198 207 215 224 234 244 254 263 271 276 280 284 288 290 292 294 297 299
222 227 238 250 266 301 327 333 340 352 6 23 42 57 68 87 107 117 126 136 147 159 166 178 189 200 212 224 234 243 253 262 269 274 278 282 286 289 291 293 295 297 299 301
227 233 239 246 252 264 282 296 306 310 319 331 337 14 41 80 130 155 165 171 176 186 198 206 216 228 237 245 254 262 269 274 278 282 285 288 290 292 294 297 298 300 302 303
230 235 238 243 246 251 257 260 265 270 273 288 302 314 341 19 79 127 178 201 204 210 218 228 238 248 256 264 271 275 280 283 286 289 291 292 295 296 298 300 301 303 304 307
231 235 237 239 241 241 242 247 248 245 240 244 247 246 238 262 253 226 226 230 232 237 244 252 260 267 275 280 284 288 290 292 293 295 296 297 299 300 301 303 305 306 308 310
Height
5692 5697 5699 5701 5704 5707 5709 5711 5713 5714 5714 5715 5718 5720 5722 5723 5724 5725 5725 5726 5727 5730 5733 5735 5739 5742 5744 5746 5749 5751 5754 5755 5756 5758 5759 5761 5762 5763 5763 5763 5763 5763 5763 5763
5687 5690 5693 5695 5698 5699 5701 5702 5703 5704 5703 5705 5708 5711 5713 5712 5714 5714 5714 5714 5716 5718 5721 5724 5727 5731 5735 5738 5740 5743 5745 5747 5749 5750 5752 5754 5755 5755 5755 5756 5756 5756 5756 5756
5681 5685 5687 5689 5691 5692 5693 5694 5693 5693 5693 5694 5695 5699 5703 5702 5702 5702 5702 5702 5703 5706 5708 5712 5715 5720 5724 5728 5732 5735 5737 5739 5741 5742 5745 5746 5747 5747 5748 5749 5749 5749 5749 5749
5675 5678 5680 5682 5683 5683 5684 5684 5683 5682 5681 5682 5682 5681 5691 5689 5690 5689 5688 5687 5688 5691 5695 5699 5703 5708 5713 5718 5721 5725 5728 5731 5733 5735 5737 5739 5740 5740 5741 5741 5741 5741 5741 5741
5669 5671 5673 5675 5675 5674 5675 5674 5673 5671 5668 5668 5669 5663 5672 5674 5674 5674 5673 5671 5672 5676 5680 5685 5690 5695 5701 5706 5710 5715 5719 5722 5724 5727 5729 5731 5732 5733 5734 5734 5734 5734 5734 5734
5663 5664 5666 5666 5666 5666 5665 5664 5662 5658 5655 5655 5656 5646 5652 5659 5655 5654 5653 5654 5655 5659 5665 5671 5677 5682 5688 5694 5699 5704 5709 5713 5716 5719 5721 5723 5725 5725 5726 5726 5727 5727 5727 5726
5656 5658 5658 5658 5658 5657 5656 5653 5650 5645 5642 5641 5638 5632 5636 5640 5634 5631 5632 5634 5637 5642 5648 5656 5663 5670 5676 5683 5689 5694 5699 5703 5707 5710 5713 5716 5717 5718 5718 5719 5719 5720 5719 5718
5650 5652 5652 5651 5650 5648 5646 5643 5639 5634 5629 5625 5619 5617 5623 5620 5614 5610 5611 5614 5619 5625 5632 5641 5649 5657 5664 5671 5678 5684 5690 5694 5698 5702 5705 5708 5709 5710 5711 5712 5712 5712 5711 5709
5643 5645 5645 5643 5641 5639 5636 5632 5628 5622 5616 5610 5606 5604 5605 5602 5597 5593 5594 5596 5601 5608 5616 5625 5635 5644 5652 5660 5668 5674 5680 5684 5689 5693 5697 5699 5701 5703 5704 5704 5704 5704 5703 5701
5636 5638 5637 5635 5633 5630 5627 5623 5618 5611 5604 5597 5594 5592 5590 5586 5581 5580 5579 5580 5584 5591 5600 5610 5620 5631 5640 5649 5657 5663 5669 5675 5680 5684 5688 5691 5694 5695 5697 5697 5697 5696 5694 5692
5629 5630 5631 5629 5626 5622 5619 5616 5609 5602 5596 5589 5582 5583 5578 5573 5569 5567 5567 5567 5570 5576 5585 5595 5606 5618 5628 5638 5647 5654 5660 5666 5671 5676 5680 5684 5686 5688 5689 5689 5688 5687 5685 5683
5623 5624 5624 5623 5619 5615 5612 5608 5602 5595 5589 5580 5572 5572 5568 5562 5557 5555 5555 5555 5558 5564 5572 5582 5594 5606 5618 5629 5638 5646 5652 5658 5663 5668 5673 5676 5679 5680 5681 5681 5680 5678 5677 5675
5618 5618 5618 5617 5615 5610 5606 5602 5594 5587 5580 5572 5564 5562 5558 5553 5548 5546 5546 5546 5548 5553 5561 5572 5584 5598 5610 5621 5630 5638 5645 5651 5656 5661 5666 5669 5671 5672 5673 5673 5672 5670 5668 5666
5613 5613 5613 5612 5608 5603 5599 5595 5588 5580 5572 5565 5558 5553 5551 5545 5541 5539 5538 5538 5540 5546 5554 5565 5578 5591 5604 5614 5624 5631 5638 5644 5650 5655 5659 5662 5664 5665 5665 5665 5664 5662 5660 5657
5609 5610 5608 5606 5603 5599 5594 5589 5582 5575 5568 5560 5554 5548 5545 5540 5537 5535 5534 5534 5536 5542 5551 5562 5575 5588 5600 5610 5619 5626 5633 5639 5645 5649 5653 5656 5657 5658 5658 5657 5655 5653 5651 5648
5605 5606 5604 5602 5599 5595 5590 5584 5578 5572 5566 5559 5553 5547 5543 5538 5536 5534 5534 5535 5538 5544 5554 5565 5576 5588 5598 5608 5616 5623 5629 5635 5640 5644 5647 5650 5651 5651 5650 5649 5647 5645 5642 5639
5602 5602 5601 5600 5596 5593 5588 5583 5577 5572 5566 5561 5555 5551 5545 5542 5539 5538 5539 5541 5545 5552 5560 5570 5579 5589 5598 5606 5614 5620 5626 5632 5636 5640 5642 5643 5644 5643 5642 5640 5638 5636 5634 5630
5600 5599 5598 5597 5596 5591 5590 5583 5578 5573 5569 5563 5558 5554 5551 5548 5545 5545 5547 5549 5554 5560 5568 5576 5584 5592 5599 5606 5613 5618 5624 5628 5632 5634 5636 5636 5636 5635 5634 5632 5631 5628 5625 5621
5597 5597 5596 5595 5593 5591 5589 5584 5580 5576 5573 5568 5564 5561 5558 5556 5555 5555 5556 5559 5563 5569 5575 5581 5588 5594 5601 5607 5612 5617 5621 5624 5627 5628 5629 5629 5629 5628 5627 5625 5623 5620 5616 5612
5595 5595 5595 5594 5592 5591 5591 5587 5583 5581 5577 5574 5570 5568 5565 5564 5564 5565 5565 5568 5572 5576 5581 5586 5591 5596 5601 5606 5610 5614 5617 5619 5621 5622 5623 5623 5622 5621 5619 5617 5614 5611 5606 5601
5593 5593 5594 5593 5592 5591 5591 5588 5586 5585 5583 5579 5576 5575 5573 5572 5572 5573 5573 5576 5578 5581 5585 5589 5593 5597 5601 5605 5608 5611 5613 5615 5616 5617 5617 5616 5615 5614 5612 5609 5605 5601 5597 5591
5591 5592 5592 5592 5592 5594 5591 5589 5588 5587 5584 5582 5581 5580 5579 5579 5579 5579 5580 5582 5584 5586 5589 5592 5595 5598 5601 5604 5606 5608 5610 5611 5611 5611 5611 5610 5608 5606 5604 5600 5596 5592 5586 5581
5588 5590 5591 5592 5594 5592 5591 5589 5588 5587 5586 5585 5584 5584 5583 5583 5583 5584 5585 5586 5587 5589 5591 5593 5596 5598 5600 5602 5604 5605 5606 5606 5606 5606 5605 5603 5601 5599 5595 5592 5587 5582 5576 5570
5586 5587 5589 5590 5590 5590 5590 5589 5589 5588 5587 5586 5586 5586 5585 5585 5586 5586 5587 5588 5589 5591 5592 5594 5596 5597 5599 5600 5601 5602 5602 5602 5601 5600 5599 5597 5594 5591 5587 5582 5577 5572 5566 5560
5583 5584 5586 5587 5588 5588 5589 5588 5588 5588 5587 5587 5587 5587 5587 5587 5587 5587 5588 5589 5590 5591 5592 5594 5595 5596 5597 5597 5598 5598 5598 5597 5596 5594 5592 5589 5586 5582 5578 5573 5568 5562 5556 5549
5579 5581 5583 5585 5586 5586 5587 5587 5587 5587 5587 5587 5587 5587 5587 5587 5587 5588 5588 5589 5590 5591 5592 5592 5593 5594 5594 5594 5594 5594 5593 5592 5590 5588 5585 5582 5578 5574 5569 5564 5558 5552 5546 5539